Hourly Data Report for May 16, 2012

All times are specified in Local Standard Time (LST). Add 1 hour to adjust for Daylight Saving Time where and when it is observed.

OTTAWA INTL A
ONTARIO

45°19'00.000" N
75°40'00.000" W
114.90 m
6106001
71628
YOW

Download Data

Hourly Data (May 2012)
Hourly Data Report for May 16, 2012
Temp Definition
°C
Dew Point Temp Definition
°C
Rel Hum Definition
%
Wind Dir Definition
10's deg

Wind Spd Definition
km/h
Visibility Definition
km
Stn Press Definition
kPa
Hmdx Definition


Wind Chill Definition


Weather Definition


TIME
00:00 Legend Double Dagger 13.8 11.2 84 18 6 10.0 99.68     LegendNANA
01:00 Legend Double Dagger 12.3 10.6 89 16 6 10.0 99.63     Clear
02:00 Legend Double Dagger 10.7 10.1 96 15 9 10.0 99.58     LegendNANA
03:00 Legend Double Dagger 8.9 8.5 97 15 5 10.0 99.58     LegendNANA
04:00 Legend Double Dagger 10.1 10.0 99 15 10 10.0 99.51     Mainly Clear
05:00 Legend Double Dagger 12.1 11.8 98 17 9 10.0 99.48     LegendNANA
06:00 Legend Double Dagger 13.2 12.9 98 23 6 10.0 99.54     LegendNANA
07:00 Legend Double Dagger 15.6 13.5 87 21 13 10.0 99.54     Mostly Cloudy
08:00 Legend Double Dagger 16.2 12.8 80 19 9 10.0 99.51     LegendNANA
09:00 Legend Double Dagger 16.2 13.4 83 18 12 10.0 99.49     Rain
10:00 Legend Double Dagger 18.6 12.4 67 19 15 10.0 99.41     Rain Showers
11:00 Legend Double Dagger 19.3 11.4 60 30 15 10.0 99.48     LegendNANA
12:00 Legend Double Dagger 15.8 12.6 81 25 17 10.0 99.50     Rain
13:00 Legend Double Dagger 15.0 12.9 87 21 26 10.0 99.49     Rain
14:00 Legend Double Dagger 16.3 13.3 82 21 27 10.0 99.46     LegendNANA
15:00 Legend Double Dagger 18.1 12.4 69 23 21 10.0 99.40     LegendNANA
16:00 Legend Double Dagger 19.0 10.4 57 23 20 10.0 99.35     Mainly Clear
17:00 Legend Double Dagger 18.1 7.0 48 29 42 10.0 99.42     LegendNANA
18:00 Legend Double Dagger 15.5 6.0 53 30 34 10.0 99.53     LegendNANA
19:00 Legend Double Dagger 13.5 4.7 55 29 36 10.0 99.68     Mostly Cloudy
20:00 Legend Double Dagger 11.5 4.3 61 29 35 10.0 99.82     LegendNANA
21:00 Legend Double Dagger 10.4 2.8 59 30 26 10.0 99.97     LegendNANA
22:00 Legend Double Dagger 9.4 1.6 58 30 27 10.0 100.08     Mostly Cloudy
23:00 Legend Double Dagger 8.5 0.7 58 31 23 10.0 100.17     LegendNANA

Notes on Data Quality.

Legend

  • E = Estimated
  • M = Missing
  • NA = Not Available
  • ‡ = Partner data that is not subject to review by the National Climate Archives
Date modified: